Location: Sternwarte auf dem Internationalen Platz Vogelsang IP
(50.5721°N, 6.4398°E)
Time: 05:32:17
(UTC+01:00)

Transit 2A Rocket - Pass Details

Date: 15 December 2025
Orbit: 581 x 903 km, 66.7° (Epoch: 13 January)

Event Time Altitude Azimuth Distance (km) Brightness Sun altitude
Rises 16:59:40 0° 321° (NW) 3,535 8.5 -4.7°
Reaches altitude 10° 17:02:13 10° 320° (NW) 2,585 7.9 -5.1°
Maximum altitude 17:08:14 70° 238° (WSW) 932 5.7 -5.9°
Drops below altitude 10° 17:13:56 10° 155° (SSE) 2,451 7.7 -6.7°
Sets 17:16:18 0° 154° (SSE) 3,339 8.3 -7.0°
